Starlink 3858

operational
NORAD ID: 52553 Int'l Des: 2022-051 Owner: SPXS Country: US Constellation: starlink
LEOCIRCULAR

Starlink 3858について

説明を読み込み中...

リアルタイム位置

3D地球を読み込み中...

次回通過

高度履歴

Altitude vs Time

uPlot chart will show altitude changes over time

軌道要素

1 52553U 22051W 26034.12537713 .00005538 00000-0 36585-3 0 9995
2 52553 53.2176 283.9484 0001168 103.1558 256.9565 15.08832075206233
Epoch: Feb 3, 2026 • Age: 7 hours

現在のステータス

高度 543.9 km
速度 7.60 km/s
衛星直下点 45.41°N, 53.43°E
打ち上げ日 May 13, 2022
運用期間 3.7 years
タイプ internet

技術仕様

分類 Payload
質量 297.00 kg
乾燥質量 275.00 kg
総質量 297.00 kg
長さ 0.20 m
直径 2.80 m
スパン 9.00 m
形状 Box + pan
製造者 SPXS
バスタイプ Starlink
フェーズステータス In Orbit
所有者/国 SPXS/US

大規模コンステレーション

Loading constellations...